User: anonymous   Login
Location: ????? ????
(37.9717°N, 23.4051°E)
Time: 15:00:09
(UTC+00:00)
Language:

Hubble Space Telescope - Orbit

View from above orbital plane
View from above orbital plane
View from above satellite
View from above satellite

Ground track
Ground track

The orbit data is extracted from the following two-line orbital elements,

1 20580U 90037B   24176.74757107  .00005697  00000-0  26442-3 0  9990
2 20580  28.4691 294.4758 0003061 115.1997 244.8913 15.17843407678180
Epoch (UTC): 24 June 2024 17:56:30
Eccentricity: 0.0003061
inclination: 28.4691°
perigee height: 510 km
apogee height: 514 km
right ascension of ascending node: 294.4758°
argument of perigee: 115.1997°
revolutions per day: 15.17843407
mean anomaly at epoch: 244.8913°
orbit number at epoch: 67818

The dashed part of the orbit path shows where the satellite is in the earth's shadow,  

DLR